GFSNW_500_spd_132.txt.gz
Wind_Speed
24 26 27 27 26 26 23 24 24 26 28 28 28 22 18 19 20 18 16 13 11 11 10 12 14 14 14 14 16 17 19 19 19 20 20 18 16 14 12 10 8 6 7 14
20 21 22 24 24 23 22 19 18 20 21 22 22 22 21 20 17 14 14 13 12 11 10 10 8 9 10 10 11 11 12 14 15 15 15 14 12 12 10 9 10 10 10 15
15 17 19 19 20 20 19 18 18 15 15 15 16 17 18 18 16 15 15 13 11 9 9 10 10 9 9 9 9 9 9 10 10 11 11 12 12 13 13 12 12 13 13 13
14 13 15 16 16 16 16 15 16 14 13 9 8 10 12 12 12 13 12 11 11 10 10 8 8 8 7 8 9 9 9 10 11 12 13 12 14 15 14 13 16 11 18 11
16 16 13 13 14 13 13 15 13 12 11 9 9 6 3 5 6 7 7 7 8 7 6 5 6 6 6 7 7 7 7 7 9 11 12 13 16 17 16 15 18 15 16 19
17 15 15 13 11 12 11 11 11 11 9 8 7 7 6 5 2 1 2 3 4 5 6 6 7 7 6 7 8 9 10 11 11 12 14 13 16 21 20 19 20 21 22 25
19 18 17 15 13 11 11 10 10 11 11 11 7 5 5 5 5 5 4 3 3 5 7 7 8 9 10 11 12 13 14 15 15 15 20 20 20 22 22 24 25 26 28 30
24 22 20 19 15 14 13 13 13 12 11 12 13 11 8 6 7 7 8 9 9 9 8 8 10 12 12 13 14 15 16 17 17 19 21 23 25 26 27 29 30 29 34 36
29 26 24 23 22 19 17 15 16 16 15 14 14 14 16 15 13 12 13 13 13 14 14 15 16 16 17 17 18 19 20 21 22 24 25 28 30 32 32 31 31 32 33 35
33 31 30 28 26 25 23 22 21 19 19 20 19 19 19 19 20 20 20 19 18 18 19 21 21 22 23 22 23 25 26 28 27 29 31 31 34 35 33 35 32 33 35 38
38 36 34 33 31 30 28 27 27 27 25 23 24 26 25 25 25 25 24 24 25 25 25 24 25 25 27 27 27 28 30 32 30 33 35 37 37 39 38 35 35 37 36 41
46 41 39 38 37 36 34 32 32 32 32 32 29 28 29 31 30 29 31 30 29 30 30 30 30 29 29 31 30 32 32 33 32 34 37 41 41 41 38 39 40 41 44 46
50 48 45 44 43 41 39 37 36 35 33 34 33 34 33 32 32 33 32 33 33 33 34 34 34 33 33 32 31 32 33 37 39 40 40 44 46 46 47 50 50 50 51 52
51 52 49 48 46 43 41 39 38 38 35 35 35 32 30 30 31 33 34 33 34 35 36 36 36 36 39 36 37 35 37 40 44 45 41 45 49 51 51 53 53 55 57 57
54 53 51 46 46 45 43 40 39 40 39 38 36 34 33 33 32 33 36 39 40 39 39 41 41 41 44 43 42 35 40 43 44 42 41 43 47 49 49 49 51 50 49 51
55 50 47 46 45 45 44 44 41 40 40 41 40 34 32 33 36 35 36 36 38 40 41 42 42 42 44 46 39 35 38 43 45 44 44 44 45 45 44 44 46 48 51 53
56 52 49 49 48 45 44 47 44 42 41 40 40 38 35 34 34 36 36 38 38 40 41 41 40 36 40 39 33 34 36 38 39 41 44 46 47 47 48 50 52 54 56 58
57 54 52 49 49 48 45 47 47 45 44 43 42 39 38 36 35 35 36 38 38 39 41 41 41 43 42 43 38 38 38 39 40 41 44 46 50 53 56 58 58 59 62 65
60 55 52 53 50 47 49 47 46 46 45 46 42 41 42 39 38 37 36 38 40 42 42 43 46 44 43 45 45 45 45 46 48 49 52 55 57 59 61 63 65 66 67 68
59 57 58 55 54 52 51 50 49 49 49 49 47 43 45 45 43 43 42 44 43 44 45 46 47 48 48 48 52 53 55 56 57 60 63 64 64 64 64 66 67 69 72 73
49 54 52 53 54 51 51 52 52 52 53 51 46 44 45 44 46 46 47 48 48 49 49 49 50 49 49 50 53 53 55 58 61 63 64 65 65 66 68 69 71 72 73 75
45 43 43 44 45 48 50 54 54 53 53 50 49 49 48 47 48 49 50 49 50 51 50 52 51 49 46 48 53 54 56 58 60 62 64 66 68 69 69 71 72 73 75 78
43 38 40 44 47 50 52 53 52 49 48 49 50 52 52 51 52 52 50 51 51 50 52 52 54 50 52 51 53 56 60 61 63 65 68 70 72 74 75 77 78 80 81 83
42 42 45 47 49 51 51 51 49 49 50 50 51 52 52 52 52 51 51 53 53 55 56 54 53 54 57 61 63 64 64 66 69 74 77 79 80 77 75 76 79 81 83 84
47 46 46 45 50 51 50 49 50 52 53 53 53 54 53 53 54 54 55 56 57 58 55 57 58 60 63 66 67 69 71 73 76 78 79 76 75 75 77 77 79 81 81 83
54 51 51 52 51 52 53 54 56 57 58 58 58 58 58 58 59 58 59 60 58 57 59 61 62 64 67 70 73 76 79 79 80 81 80 79 77 77 78 79 78 77 77 78
55 54 55 55 58 59 59 60 61 61 61 62 62 62 61 62 62 61 60 59 58 62 63 66 68 71 75 79 80 79 78 79 80 80 80 78 76 74 77 76 73 71 68 68

GFSNW_500_spd_135.txt.gz
Wind_Speed
23 25 26 27 25 21 20 21 22 23 24 23 20 19 17 14 14 14 12 9 8 8 9 10 12 12 12 14 15 16 17 17 19 19 20 19 17 17 18 16 15 15 14 13
19 20 22 23 23 23 19 16 17 19 19 19 20 19 16 14 13 12 11 10 9 8 8 7 8 9 10 12 12 13 16 16 18 20 20 20 18 18 16 15 13 11 13 15
15 17 18 19 20 20 19 16 15 12 13 14 14 14 14 14 14 13 10 8 8 8 7 8 8 9 9 9 10 11 13 13 13 16 16 15 15 16 15 14 13 18 13 21
14 14 15 14 15 16 16 16 15 12 11 9 9 8 8 8 8 9 8 8 8 7 5 4 6 8 9 10 11 12 12 12 13 13 14 14 16 16 16 15 17 17 18 20
14 14 13 13 11 11 12 13 13 12 10 7 8 5 2 3 3 3 4 4 4 4 4 4 5 5 6 8 9 10 11 11 12 12 13 15 15 18 19 18 19 20 22 25
18 15 15 14 12 9 9 8 10 9 9 9 7 4 3 4 1 2 3 4 4 5 5 6 7 9 9 10 10 11 12 14 14 12 18 17 17 22 24 24 23 24 26 26
22 20 18 17 15 13 11 9 8 10 10 9 7 7 7 5 3 4 4 4 6 8 11 11 11 12 12 12 13 14 16 18 17 16 22 22 22 24 25 27 26 26 28 31
27 25 24 21 19 17 16 14 12 11 12 13 13 10 9 9 10 10 10 9 10 10 11 12 12 14 15 17 18 20 20 22 22 23 25 27 26 26 28 29 30 31 33 35
32 30 28 27 24 21 20 19 18 17 16 16 16 17 17 15 14 13 15 16 15 15 16 17 17 18 19 18 19 20 22 23 25 27 28 31 29 31 33 34 33 32 33 35
37 35 33 31 30 28 25 24 22 22 21 20 20 21 21 22 22 22 21 20 20 21 22 22 22 23 24 24 24 25 26 28 28 30 33 33 33 35 35 36 36 35 37 38
44 41 39 37 34 33 32 29 28 28 27 26 25 26 26 27 29 27 27 27 28 27 26 26 27 27 29 29 28 29 30 32 32 35 37 36 38 39 39 40 40 40 41 42
48 48 45 42 42 39 37 36 34 33 32 33 33 32 30 30 30 32 32 31 31 32 31 31 32 31 31 32 33 34 36 37 38 39 40 42 43 44 44 44 43 44 45 46
48 51 51 48 45 44 43 42 41 41 38 36 34 34 33 32 33 32 31 32 32 33 36 33 34 34 33 35 36 36 37 38 41 41 43 46 49 48 48 49 49 49 49 50
51 50 52 53 49 47 45 46 45 45 43 40 38 36 31 28 30 31 31 31 31 32 33 36 35 35 37 38 39 38 39 40 45 45 46 47 50 49 49 50 50 50 51 51
56 54 54 56 54 51 49 47 48 46 43 43 41 40 37 33 30 32 33 33 33 33 33 34 35 36 39 40 41 38 40 44 47 48 47 49 49 48 49 51 51 50 49 51
62 59 58 59 58 54 52 50 50 47 43 44 43 42 38 36 34 30 32 34 33 33 34 33 33 35 38 39 35 31 34 38 42 42 41 42 43 45 45 46 49 50 51 52
66 66 63 62 61 59 55 53 51 49 46 45 46 44 39 38 39 38 37 37 37 38 38 38 39 37 41 40 35 37 36 38 39 40 41 42 44 45 46 47 49 51 55 58
63 65 65 63 62 59 57 56 55 49 47 46 47 45 41 39 39 38 37 38 39 38 40 38 38 42 43 42 38 41 42 43 43 43 45 47 49 51 54 56 58 60 63 64
55 56 63 67 64 62 62 60 57 51 48 48 45 42 41 41 39 38 39 40 42 43 43 43 45 44 42 43 43 45 45 46 47 49 52 54 55 56 58 61 63 64 64 65
44 54 57 64 65 67 66 63 56 51 51 50 47 45 46 44 43 43 42 44 44 46 45 46 46 44 41 45 45 45 46 47 49 51 52 54 57 59 61 62 64 65 66 69
45 47 41 44 46 49 53 55 58 55 53 51 47 44 45 44 45 45 45 46 47 47 47 48 49 46 41 42 42 44 46 49 51 53 56 56 58 61 63 63 63 66 70 74
34 35 37 34 38 38 42 46 48 49 49 49 45 43 44 44 44 44 44 44 47 48 47 49 50 42 42 43 45 48 51 55 56 57 57 61 64 66 68 69 71 75 79 83
36 42 44 43 44 46 45 45 44 41 40 42 43 43 42 42 42 43 44 46 47 46 47 47 42 43 47 49 52 53 57 59 61 63 64 65 68 70 72 75 81 86 89 91
44 43 45 46 52 53 49 44 42 42 42 43 43 43 43 42 42 43 43 45 46 46 44 44 48 50 52 55 58 60 62 63 65 66 68 70 73 76 79 85 88 88 83 81
52 49 50 50 52 52 49 43 41 42 43 45 45 44 44 44 44 44 46 49 50 51 52 53 54 56 58 60 62 64 65 65 66 69 72 76 80 84 87 86 85 83 81 81
46 48 48 48 48 50 49 48 49 48 46 46 46 47 47 46 49 48 51 53 53 54 56 57 57 58 62 64 65 66 68 72 75 79 81 84 87 88 88 85 82 80 81 80
50 51 50 48 49 51 53 54 55 55 53 53 53 54 54 55 56 56 57 57 56 58 58 58 60 62 63 66 70 74 77 81 83 85 86 87 87 87 86 84 80 79 78 75

GFSNW_500_spd_138.txt.gz
Wind_Speed
21 23 25 26 26 23 20 20 21 22 21 20 21 21 17 16 14 13 13 12 13 11 11 12 13 14 17 19 20 20 22 23 23 21 22 19 19 21 21 20 20 21 19 14
17 19 20 22 22 22 21 19 16 16 18 19 20 19 16 15 14 11 9 9 8 7 8 9 9 10 10 12 13 14 15 15 16 18 19 20 19 20 21 24 20 15 18 15
17 17 17 18 19 19 18 19 17 14 13 14 15 14 14 14 13 11 10 9 6 5 7 8 8 9 10 11 12 13 14 15 17 18 19 21 23 24 23 19 14 18 15 19
14 15 16 16 16 15 16 16 15 16 13 10 8 9 9 9 9 9 9 8 7 5 4 3 3 5 6 8 10 11 12 14 16 18 19 19 20 19 18 16 18 19 18 20
15 15 15 14 15 15 13 13 14 12 12 13 10 9 4 4 4 4 4 3 3 3 2 3 3 4 4 5 7 8 9 10 13 14 14 15 15 16 20 19 20 20 22 22
21 16 15 16 15 15 14 12 11 11 11 9 9 9 8 6 4 3 3 3 3 4 4 4 5 6 7 8 9 9 10 11 13 12 16 15 14 18 21 22 21 23 24 29
24 24 19 17 17 17 15 15 13 12 12 11 11 9 8 8 8 7 6 6 6 7 8 10 11 12 12 13 13 14 14 16 16 16 21 20 19 21 23 26 27 28 31 33
29 27 26 23 21 19 20 17 16 16 14 14 15 14 12 10 11 11 10 11 11 11 12 13 12 13 14 16 16 19 19 20 22 22 24 25 23 27 28 29 29 31 33 34
38 33 29 28 27 24 22 23 22 19 19 18 19 18 18 18 16 15 16 16 15 16 16 15 16 18 19 19 20 21 23 24 24 26 28 29 26 30 32 34 32 34 35 37
42 41 37 34 32 30 28 27 26 26 24 23 21 23 23 23 22 22 23 22 22 22 22 22 22 22 23 22 23 26 28 29 29 32 32 31 31 34 35 36 36 35 37 38
43 45 44 41 38 35 34 33 31 30 29 30 27 27 26 27 29 29 29 28 28 28 28 27 28 27 27 29 28 30 31 32 32 35 37 35 35 37 37 38 39 40 40 41
48 48 48 46 45 41 39 38 37 36 35 36 33 32 31 31 32 31 32 32 32 32 32 31 31 31 30 33 33 33 35 35 36 37 38 40 41 40 40 42 43 45 45 46
53 52 51 49 49 48 45 42 42 42 40 40 39 38 36 35 34 34 33 32 30 30 32 31 31 31 30 32 35 33 34 36 39 41 39 42 42 43 45 46 46 45 46 47
58 57 54 53 51 51 50 48 46 46 44 43 41 40 40 38 36 34 30 32 33 34 33 31 28 27 30 31 34 33 33 34 39 43 43 45 46 45 47 48 48 48 48 47
60 61 60 58 57 55 53 52 51 51 48 47 44 43 42 41 40 38 36 35 34 34 34 33 31 29 32 33 30 24 29 33 37 38 37 38 38 39 41 43 44 44 46 47
62 62 61 58 62 62 59 57 55 54 54 52 50 46 44 41 40 40 39 38 36 36 36 35 35 34 37 38 31 25 27 32 34 35 35 36 38 39 40 41 43 45 47 49
62 60 62 62 62 62 65 63 59 57 56 55 55 53 47 44 42 41 41 41 40 39 39 38 37 34 37 35 28 29 33 33 34 37 38 38 39 41 43 45 47 49 52 54
55 53 54 57 60 63 63 67 67 64 62 59 58 56 51 47 45 43 43 43 43 41 41 38 36 38 39 35 33 38 40 38 39 40 42 43 43 44 46 48 49 50 52 54
47 43 45 48 50 53 55 56 59 62 64 62 58 55 54 51 47 44 43 43 43 44 42 40 41 40 37 37 39 40 41 42 43 45 44 44 45 46 47 49 51 54 54 55
38 44 44 42 42 41 42 47 51 52 53 56 55 56 56 51 50 47 45 45 46 46 44 45 43 41 35 40 41 41 42 43 45 45 45 46 47 49 51 53 55 56 58 62
47 42 41 43 43 41 40 40 41 44 47 51 51 48 50 48 45 45 46 46 47 47 46 47 46 40 38 40 41 43 44 43 43 44 46 49 52 54 56 59 62 64 65 67
45 43 38 36 40 44 45 42 39 39 39 40 37 35 36 39 41 42 44 44 45 46 46 46 45 40 39 38 38 40 41 43 45 48 51 53 56 59 62 64 65 66 68 70
43 42 40 35 40 49 50 46 41 34 30 30 31 34 35 35 34 35 35 38 40 40 42 42 37 34 36 37 40 43 46 49 53 54 55 57 60 63 64 65 67 69 71 78
41 41 39 40 44 51 52 49 43 39 40 40 35 34 35 35 35 36 36 38 38 39 38 34 35 38 41 44 47 50 52 54 56 57 58 61 63 63 65 68 74 80 86 90
45 45 45 48 47 48 47 46 45 46 45 44 45 42 37 36 37 37 39 39 40 39 37 40 43 46 49 51 53 55 58 59 60 62 63 63 66 70 73 79 87 91 93 94
47 50 51 50 48 47 47 48 47 46 47 47 48 45 44 42 42 40 41 42 41 43 46 48 50 53 56 59 60 61 61 61 61 63 67 71 76 82 87 89 90 92 91 89
48 48 48 48 50 51 51 52 51 51 49 47 45 47 47 48 48 48 48 48 49 51 51 52 56 59 61 63 63 61 59 62 66 71 76 81 85 88 91 91 90 91 90 87

GFSNW_500_spd_141.txt.gz
Wind_Speed
18 20 23 25 24 24 20 19 21 22 23 21 21 20 18 16 16 17 16 14 12 10 9 10 14 16 17 18 16 16 17 18 18 18 19 19 20 21 22 22 21 23 24 23
17 16 18 20 22 21 22 19 17 17 19 20 20 19 17 17 15 13 11 11 11 12 13 12 11 12 15 17 19 20 19 19 21 22 23 24 23 23 23 23 22 22 26 24
13 15 15 16 17 19 19 19 18 16 14 15 16 16 16 15 13 13 12 10 7 6 7 9 9 10 10 11 12 13 14 15 17 19 20 22 23 24 25 24 24 25 21 23
18 14 13 15 13 15 16 17 17 17 16 14 13 12 12 11 11 10 9 8 7 7 6 7 6 7 8 10 12 13 14 16 18 20 22 23 25 25 27 25 23 22 19 22
18 19 17 13 14 11 12 13 13 14 14 15 14 11 11 9 7 7 6 5 4 3 4 4 5 5 6 8 10 11 12 12 15 17 17 18 17 18 20 18 19 17 22 21
20 19 20 20 16 14 12 10 11 11 12 12 12 12 11 8 6 6 5 5 5 4 3 4 5 6 7 9 9 11 11 12 13 12 14 13 12 17 19 19 20 23 23 26
29 24 21 21 22 20 16 14 12 11 11 11 12 11 9 9 9 8 5 6 6 6 6 7 8 11 11 12 13 14 14 16 16 16 19 17 17 20 22 23 25 27 28 29
33 32 30 25 23 24 23 20 18 15 14 14 15 13 13 14 12 11 10 10 10 11 11 10 11 12 13 14 14 16 17 19 20 20 22 24 23 25 25 27 26 28 30 32
34 33 31 32 30 26 27 26 24 22 21 18 16 16 18 18 16 17 16 16 16 16 16 17 16 17 18 19 18 21 22 23 24 25 25 24 25 29 29 30 29 33 35 36
39 38 38 34 33 34 32 31 29 28 25 25 23 22 20 20 21 22 22 21 22 23 23 22 23 23 23 23 24 26 28 28 28 30 31 29 31 33 34 32 33 34 36 38
46 45 43 42 40 38 38 37 35 33 31 29 29 28 27 26 24 24 27 26 27 27 26 27 28 26 27 28 28 30 31 32 32 34 35 34 34 36 36 36 37 38 38 39
54 52 49 48 45 43 43 42 40 39 38 36 33 33 33 33 32 31 30 30 30 29 30 28 27 28 28 30 28 30 32 33 36 35 35 38 38 36 36 37 39 40 41 43
60 57 56 55 52 49 47 48 46 45 43 42 40 39 37 36 36 36 35 36 36 32 31 28 28 27 27 28 29 29 29 32 35 37 34 38 40 37 39 41 41 42 42 43
64 64 62 59 57 55 53 52 52 50 47 46 44 43 42 40 40 40 38 36 36 36 34 34 32 30 31 28 31 28 23 28 33 34 35 36 36 36 36 35 35 37 38 39
63 64 64 61 61 58 56 55 55 54 52 51 48 47 45 44 43 41 41 41 41 42 42 40 36 32 33 35 33 25 28 31 35 36 35 36 35 34 35 35 37 38 40 41
62 63 62 63 61 59 57 57 57 57 56 56 54 52 51 49 47 46 46 45 43 45 45 44 42 37 37 40 33 24 32 36 36 33 34 34 34 36 37 37 38 39 41 42
61 63 61 61 62 60 57 55 55 55 58 59 58 58 57 55 52 52 51 51 50 47 48 47 45 42 44 42 32 30 34 35 35 36 39 39 37 38 39 41 42 42 44 44
50 51 51 56 60 61 61 56 54 57 58 58 58 60 57 56 58 57 55 55 54 50 51 49 46 47 45 42 33 37 38 38 38 40 40 40 40 41 42 43 44 44 45 45
43 38 41 42 49 48 46 46 44 47 50 52 55 56 53 52 53 55 55 53 51 49 48 48 48 47 42 40 42 41 40 40 41 42 42 42 43 43 44 44 44 46 47 49
45 41 43 42 39 39 38 38 36 37 40 41 41 40 43 47 49 51 52 53 49 48 47 48 48 43 41 45 42 42 42 42 41 42 43 44 44 45 46 47 47 49 51 53
52 44 40 39 34 34 34 37 40 41 41 38 33 34 36 37 39 38 39 42 43 46 46 46 45 40 41 42 40 41 42 41 41 42 43 44 45 45 47 50 52 54 57 59
51 43 43 44 38 38 39 41 44 41 39 39 30 27 31 29 28 29 32 33 36 40 41 43 43 39 39 37 36 36 37 37 37 38 41 44 47 50 53 54 56 58 61 64
46 45 44 42 47 49 48 47 43 41 40 40 35 33 31 30 29 29 31 34 35 33 36 36 33 32 34 36 37 38 38 38 39 41 44 46 49 51 53 56 60 62 63 65
45 41 39 49 50 47 48 44 44 47 43 42 42 41 40 36 34 34 31 33 33 35 33 30 31 33 36 38 40 41 41 42 45 48 50 53 54 56 58 61 63 65 65 68
38 43 52 51 48 45 42 41 42 44 43 42 45 45 44 44 41 38 40 41 40 37 33 31 35 36 38 39 41 44 47 49 51 54 57 60 62 63 63 64 65 69 75 80
54 53 52 50 46 43 42 44 45 45 44 43 43 42 43 43 43 44 43 44 43 42 42 43 44 45 45 47 48 50 53 55 59 63 65 66 66 66 66 67 72 79 84 89
46 54 54 53 45 43 46 48 48 46 46 46 47 48 47 47 48 47 45 43 43 45 48 50 51 51 52 53 53 55 58 62 65 66 66 65 66 69 72 76 79 86 90 93

GFSNW_500_spd_147.txt.gz
Wind_Speed
12 14 16 19 20 22 25 26 24 26 27 25 22 21 21 23 18 13 11 11 13 14 15 16 17 16 17 17 18 18 18 19 21 22 22 23 24 25 26 27 27 28 29 27
10 10 12 14 17 18 20 22 23 23 23 23 24 22 18 17 17 17 15 11 10 10 12 14 15 15 15 16 16 16 16 17 18 19 20 21 22 25 27 28 28 28 31 28
9 9 9 11 12 14 16 17 19 20 20 20 20 20 20 18 15 13 12 12 12 11 8 8 11 14 14 15 16 16 17 17 19 21 22 24 27 29 30 32 32 31 31 33
11 7 8 8 9 11 13 14 14 15 17 17 17 17 16 16 15 14 13 11 8 7 7 8 8 9 12 14 16 19 20 21 22 23 25 26 28 30 33 34 34 35 30 32
12 11 8 7 7 8 8 11 12 12 12 13 14 14 14 13 12 12 11 10 8 7 5 2 3 5 8 9 11 14 17 19 23 24 25 26 26 28 30 31 32 33 36 32
12 11 11 10 8 8 8 8 8 8 11 11 10 11 12 11 10 9 7 7 7 6 6 5 3 3 5 8 11 14 17 20 23 24 27 29 27 24 32 34 34 34 34 28
16 15 14 14 14 12 11 9 9 9 8 8 11 11 10 9 10 10 8 6 5 5 3 2 3 7 9 11 13 15 16 19 20 20 24 24 20 22 26 29 29 30 29 30
23 21 20 20 19 19 17 14 12 11 11 11 10 9 11 13 12 11 10 11 11 10 9 9 10 12 12 12 13 15 18 20 23 24 25 25 24 26 28 29 28 33 32 34
28 27 26 27 26 25 24 23 21 18 17 16 16 15 14 13 13 14 15 15 15 16 16 17 18 18 18 18 19 21 23 25 26 27 28 27 26 30 33 35 32 35 37 38
31 32 34 33 32 31 31 30 29 29 26 23 23 22 21 20 20 19 19 19 20 21 22 23 23 23 24 23 24 27 30 30 30 33 36 33 34 36 37 36 38 39 41 42
35 34 35 36 37 36 36 36 35 35 35 34 31 29 28 28 28 28 27 26 26 27 26 26 28 27 28 28 29 30 32 32 32 37 38 38 37 40 42 43 43 43 44 44
41 44 40 38 37 37 39 40 40 41 40 40 40 39 37 36 34 34 33 34 34 34 34 34 34 32 30 31 31 31 34 33 36 35 34 38 42 43 44 45 44 44 44 45
41 41 39 39 39 41 41 41 43 43 44 44 45 45 44 44 43 42 41 39 41 40 41 41 42 41 40 38 33 31 33 37 41 44 37 44 47 47 47 45 43 42 42 43
48 48 50 52 53 51 50 48 46 47 47 48 49 49 50 48 48 49 48 45 45 46 46 48 47 46 48 46 44 41 36 40 42 45 46 50 48 50 50 50 49 49 47 46
55 55 57 57 56 54 54 54 52 52 55 52 52 52 53 52 53 52 51 51 50 51 53 54 53 53 53 54 53 45 43 45 47 47 49 50 51 51 52 52 52 51 49 47
66 65 66 65 65 62 60 61 59 59 59 60 57 56 57 57 54 52 52 53 52 53 55 57 58 54 58 61 59 49 49 50 52 52 50 52 54 55 56 54 53 51 50 49
73 72 68 69 69 66 65 64 64 61 61 59 60 59 60 59 55 53 54 55 52 54 56 56 55 55 57 60 59 53 54 54 54 55 54 54 54 55 56 57 56 55 54 53
68 71 64 58 60 64 67 67 62 61 61 62 62 64 64 60 56 53 55 56 58 58 58 57 57 58 60 62 56 56 57 56 55 57 57 57 56 55 55 55 55 55 55 56
52 52 40 44 54 59 56 53 54 58 59 58 59 60 59 53 49 50 51 52 54 54 56 55 56 54 54 53 54 54 56 55 55 54 54 53 52 52 52 51 52 53 54 54
47 41 39 52 52 45 49 50 49 48 49 56 56 46 37 37 39 43 46 48 49 47 46 48 47 43 44 46 48 49 48 49 49 47 45 45 45 46 48 49 50 51 51 51
51 50 56 54 49 51 46 48 45 42 52 52 41 34 35 36 37 39 41 41 42 44 42 43 41 36 35 38 42 42 41 40 39 39 40 40 41 43 45 46 48 47 45 45
51 54 60 56 56 53 55 50 51 56 55 44 30 31 35 37 36 38 39 41 45 46 42 41 37 31 33 32 34 35 36 37 37 38 38 37 37 37 39 40 41 42 43 46
54 56 58 58 65 59 57 61 62 55 40 35 37 34 37 39 41 43 44 45 44 42 44 42 36 36 34 35 37 38 38 38 39 40 40 40 39 39 40 42 45 47 49 54
59 59 62 59 66 60 61 56 49 44 42 42 43 42 39 42 46 47 42 42 44 46 43 36 37 37 39 40 40 40 41 42 44 44 45 45 46 46 48 50 52 53 56 60
61 61 64 67 67 61 59 59 54 46 46 48 47 45 43 43 44 42 41 41 43 41 38 37 37 37 38 38 38 39 41 42 44 46 49 51 52 53 54 56 58 61 64 66
64 65 63 58 57 54 49 50 49 44 45 48 46 40 43 44 47 46 42 43 41 38 39 41 41 40 40 42 43 43 44 46 48 49 51 52 54 56 59 62 64 67 70 70
67 62 59 53 54 56 55 52 49 48 50 54 51 44 45 47 50 48 45 42 42 42 43 45 46 45 45 44 44 46 48 51 52 54 55 57 60 63 65 67 69 72 74 76